Content
SEND FEEDBACK

Daily
Averages
Monthly
Summary
United States of America

RAPID CITY, SOUTH DAKOTA


Home > North America > United States > South Dakota
Elevation: 3162 feet     Latitude: 44 03N     Longitude: 103 04W

WEATHER
 
SELECT A DAY
Number of Records: 200,436;   Date Range: 1/1/95 - 8/30/14
 
SHARE

PRINT THIS DATA

[ ← Previous Day ]
WEATHER ALMANAC - FEBRUARY 4, 2013
[ Next Day → ]
[ °C ]   °F
Weather ElementAverageHighLow
Temperature35.8 °F48.9 °F (1:52 pm)21.9 °F (4:52 am)
Dewpoint22.5 °F26.1 °F (12:52 pm)17.1 °F (4:52 am)
Humidity60.9 %85 % (8:52 am)35 % (1:52 pm)
Barometer29.87 in29.95 in (4:52 am)29.80 in (1:52 pm)
Wind Speed6.1 mph19.6 mph (2:52 pm)
Wind Gust26.5 mph (1:52 pm)
Weather ElementAverage
Visibility10 mi
Wind DirectionS (182.7 °)

Weather ElementTotal
Precipitation---
Heating Degree Days29.6 (Base 65)
Averaged from 22 records on February 4, 2013
WEATHER CONDITIONS BREAKOUT
WIND DIRECTION BREAKOUT
WEATHER BY HOUR - FEBRUARY 4, 2013
[ °C ]   °F
Local TimeTemperatureDewpointHumidityBarometerVisibilityWind DirectionWind SpeedGust SpeedPrecipitationEventsConditions
1:52 AM27.0 °F19.9 °F75 %29.94 inWest (280°)3.5 mphClear
3:52 AM23.0 °F17.6 °F80 %29.89 inCalmClear
4:52 AM21.9 °F17.1 °F82 %29.95 inCalmClear
5:52 AM25.0 °F18.0 °F75 %29.93 inCalmClear
6:52 AM26.1 °F19.0 °F75 %29.93 in10.0 miSE (130°)3.5 mphOvercast
7:52 AM26.1 °F21.9 °F84 %29.92 in10.0 miCalmOvercast
8:52 AM28.0 °F24.1 °F85 %29.91 in10.0 miCalmMostly Cloudy
9:52 AM35.1 °F25.0 °F67 %29.88 in10.0 miCalmClear
10:52 AM39.0 °F25.0 °F57 %29.86 in10.0 miSSE (150°)3.5 mphScattered Clouds
11:52 AM43.0 °F25.0 °F49 %29.84 in10.0 miESE (120°)3.5 mphOvercast
12:52 PM46.0 °F26.1 °F46 %29.82 in10.0 miCalmOvercast
1:52 PM48.9 °F21.9 °F35 %29.80 in10.0 miNNW (340°)18.4 mph26.5 mphOvercast
2:52 PM48.0 °F21.9 °F36 %29.82 in10.0 miNNW (340°)19.6 mph26.5 mphOvercast
3:52 PM46.0 °F23.0 °F40 %29.83 in10.0 miNNW (340°)16.1 mph24.2 mphOvercast
4:52 PM44.1 °F24.1 °F45 %29.85 in10.0 miNNW (330°)12.7 mphOvercast
5:52 PM41.0 °F25.0 °F53 %29.86 in10.0 miNNW (340°)8.1 mphOvercast
6:52 PM37.0 °F25.0 °F62 %29.87 in10.0 miWest (280°)8.1 mphOvercast
7:52 PM36.0 °F23.0 °F59 %29.88 in10.0 miSW (230°)4.6 mphScattered Clouds
8:52 PM32.0 °F23.0 °F69 %29.88 in10.0 miWest (260°)4.6 mphMostly Cloudy
9:52 PM36.0 °F21.9 °F57 %29.86 in10.0 miWest (260°)6.9 mphOvercast
10:52 PM36.0 °F23.0 °F59 %29.84 in10.0 miWest (280°)3.5 mphOvercast
11:52 PM42.1 °F24.1 °F49 %29.86 in10.0 miNNW (340°)17.3 mphOvercast
Hourly data recorded from KRAP, located miles away from Rapid City, South Dakota







STORIES FROM OUR PARTNERS